This is the latest recevied weather packets stored in our database for station/object KO4LCK. If no packets are shown the sender has not sent any weather packets the latest 10 day(s).
| Time | Temp. | Humidity | Pressure | Rain* | Wind** | Luminosity | Snow |
|---|---|---|---|---|---|---|---|
| 1788616875 | 30° C | 71% | 1016 hPa | 0 mm | - | 352 W/m² | - |
| 1788616570 | 30° C | 74% | 1016.3 hPa | 0 mm | - | 336 W/m² | - |
| 1788616265 | 29.44° C | 74% | 1016.5 hPa | 0 mm | - | 321 W/m² | - |
| 1788615960 | 29.44° C | 75% | 1016.5 hPa | 0 mm | - | 309 W/m² | - |
| 1788615669 | 28.89° C | 77% | 1016.4 hPa | 0 mm | - | 290 W/m² | - |
| 1788615355 | 28.89° C | 76% | 1016.4 hPa | 0 mm | - | 275 W/m² | - |
| 1788615054 | 28.33° C | 77% | 1016.6 hPa | 0 mm | - | 259 W/m² | - |
| 1788614754 | 28.33° C | 77% | 1016.7 hPa | 0 mm | - | 244 W/m² | - |
| 1788614449 | 27.78° C | 79% | 1016.5 hPa | 0 mm | - | 228 W/m² | - |
| 1788614144 | 27.22° C | 81% | 1016.6 hPa | 0 mm | - | 214 W/m² | - |
| 1788613840 | 27.22° C | 81% | 1016.7 hPa | 0 mm | - | 199 W/m² | - |
| 1788613538 | 26.67° C | 83% | 1016.8 hPa | 0 mm | - | 185 W/m² | - |
| 1788613234 | 26.11° C | 85% | 1016.8 hPa | 0 mm | - | 168 W/m² | - |
| 1788612933 | 25.56° C | 88% | 1016.8 hPa | 0 mm | - | 145 W/m² | - |
| 1788612629 | 25° C | 91% | 1016.7 hPa | 0 mm | - | 122 W/m² | - |
| 1788612325 | 23.89° C | 93% | 1016.7 hPa | 0 mm | - | 111 W/m² | - |
| 1788612021 | 23.89° C | 94% | 1016.6 hPa | 0 mm | - | 99 W/m² | - |
| 1788611717 | 23.33° C | 94% | 1016.7 hPa | 0 mm | - | 56 W/m² | - |
| 1788611414 | 23.33° C | 95% | 1016.5 hPa | 0 mm | - | 52 W/m² | - |
| 1788611108 | 22.78° C | 96% | 1016.4 hPa | 0 mm | - | 49 W/m² | - |
| 1788610823 | 22.78° C | 96% | 1016.7 hPa | 0 mm | - | 46 W/m² | - |
| 1788610498 | 22.78° C | 96% | 1016.5 hPa | 0 mm | - | 43 W/m² | - |
| 1788610196 | 22.22° C | 96% | 1016.6 hPa | 0 mm | - | 39 W/m² | - |
| 1788609891 | 22.22° C | 96% | 1016.1 hPa | 0 mm | - | 35 W/m² | - |
| 1788609587 | 22.22° C | 96% | 1016.3 hPa | 0 mm | - | 32 W/m² | - |
* Rain latest hour (hover to see other rain measurements)
** Current wind speed in m/s (hover to see current wind gust speed)